Regional Weather Roundup
Issued by NWS

Home | Current Version | Previous Version | Graphics & Text | Print | Product List | Glossary On
Versions: 1 2 3 4 5 6 7 8 9 10 11 12 13 14 15 16 17 18 19 20 21 22 23 24 25 26 27 28 29 30 31 32 33 34 35 36 37 38 39 40 41 42 43 44 45 46 47 48 49 50
000
ASUS43 KMPX 250501
RWRMN
WEATHER ROUNDUP FOR MINNESOTA
NATIONAL WEATHER SERVICE TWIN CITIES/CHANHASSEN MN
1200 AM CDT TUE APR 25 2017


NOTE: "FAIR" INDICATES FEW OR NO CLOUDS BELOW 12,000 FEET WITH NO
SIGNIFICANT WEATHER AND/OR OBSTRUCTIONS TO VISIBILITY. N/A MEANS
CURRENT SKY AND/OR WEATHER CONDITIONS ARE NOT AVAILABLE.

MNZ060>063-068>070-250600-
   Twin Cities Metro

CITY           SKY/WX    TMP DP  RH WIND       PRES   REMARKS
TWIN CITIES    LGT RAIN  61  42  49 S7G18     29.57R
ST PAUL        CLOUDY    64  33  31 SW12      29.59R
CRYSTAL        LGT RAIN  60  41  49 S12G23    29.56R
LAKEVILLE      CLOUDY    61  36  39 SE5       29.55F
EDEN PRAIRIE   LGT RAIN  57  47  69 E12       29.52F
SOUTH ST PAUL  CLOUDY    65  32  28 W21G28    29.58R
LAKE ELMO      CLOUDY    64  34  32 SW12      29.59R
$$
MNZ001>005-007-008-013>017-022>024-027-028-250600-
   Northwest Minnesota

CITY           SKY/WX    TMP DP  RH WIND       PRES   REMARKS
BEMIDJI        DRIZZLE   40  39  97 E5        29.57S
HALLOCK        CLOUDY    32  28  86 N15       29.72F WCI  22
ROSEAU         CLOUDY    32  27  80 NE13      29.69S WCI  22
WARROAD        LGT SNOW  32  28  86 NE16      29.69S WCI  21
THIEF RVR FALL CLOUDY    33  32  96 N15       29.64S WCI  23
CROOKSTON      CLOUDY    34  34 100 N13G20    29.65S WCI  25
FOSSTON        CLOUDY    36  36 100 N15       29.59S FOG
DETROIT LAKES  CLOUDY    41  41 100 NW14      29.57S FOG
MOORHEAD       CLOUDY    36  34  93 N20G25    29.62R
PARK RAPIDS    CLOUDY    46  41  82 NE5       29.54R
MAHNOMEN       CLOUDY    38  37  99 N16       29.57F
$$
MNZ006-009>011-018-025>026-250600-
   North Central Minnesota

CITY           SKY/WX    TMP DP  RH WIND       PRES   REMARKS
BAUDETTE       CLOUDY    33  32  96 N10       29.65S WCI  25
FLAG ISLAND    LGT SNOW  30  28  93 NE15      29.71S WCI  19
INTL FALLS     LGT RAIN  36  34  92 VRB5      29.63S
WASKISH        DRIZZLE   37  36  93 NE6       29.61S
BIG FORK       LGT RAIN  37  36  93 E8        29.61S
LONGVILLE      LGT RAIN  39  37  93 E6        29.56F
GRAND RAPIDS   LGT RAIN  38  34  85 SE6       29.62F
CRANE LAKE     CLOUDY    34  32  93 CALM      29.67F
ORR            CLOUDY    34  30  86 CALM      29.61R
COOK           CLOUDY    36  34  93 E5        29.63F
WALKER         CLOUDY    41  39  92 E8        29.57R
$$
MNZ012-019>021-037-250600-
   Northeast Minnesota

CITY           SKY/WX    TMP DP  RH WIND       PRES   REMARKS
DULUTH         CLOUDY    38  33  82 E18       29.62S
ELY            CLOUDY    36  34  93 NE7       29.63F
HIBBING        LGT RAIN  36  34  92 E8        29.62S
EVELETH        LGT RAIN  37  32  81 E6        29.66R
DULUTH HARBOR  CLOUDY    39  36  87 NE25      29.66F
TWO HARBORS    CLOUDY    43  36  75 NE10G22   29.63F
SILVER BAY     CLOUDY    39  34  81 NE12G21   29.63F
GRAND MARAIS     N/A     43  34  70 NE15G21   29.71F
G MARAIS ARPRT DRIZZLE   34  27  75 N13G18    29.71F WCI  25
$$
MNZ029>031-032-039>041-046>048-054>057-064-250600-
   West Central Minnesota

CITY           SKY/WX    TMP DP  RH WIND       PRES   REMARKS
FERGUS FALLS   CLOUDY    37  37 100 N17G24    29.56S FOG
WHEATON        CLOUDY    37  36  93 NW18      29.61F
ALEXANDRIA     CLOUDY    45  44  97 NW10      29.53S FOG
ELBOW LAKE     CLOUDY    40  40 100 W16       29.56S FOG
WADENA         CLOUDY    48  45  87 NE5       29.52S
GLENWOOD       MOCLDY    46  46 100 W12       29.53S FOG
APPLETON       CLOUDY    45  39  81 NW14G20   29.57R
BENSON         CLOUDY    45  39  81 N18       29.57R
ORTONVILLE     CLOUDY    39  36  87 NW18      29.58S
MADISON        CLOUDY    43  39  87 NW18      29.58S
WILLMAR        CLOUDY    50  46  87 NW14      29.53S
$$
MNZ033>034-036-042>043-049>051-058-059-250600-
   Central Minnesota

CITY           SKY/WX    TMP DP  RH WIND       PRES   REMARKS
ST CLOUD       LGT RAIN  58  43  57 SE8       29.52F
SAUK CENTRE    CLOUDY    53  44  72 CALM      29.51S
PAYNESVILLE    LGT RAIN  58  43  57 S5        29.51S
AITKIN         MIX PCPN  41  34  75 E7        29.57S
PINE RIVER     LGT RAIN  41  41 100 E6        29.59S
BRAINERD       LGT RAIN  45  40  82 MISG      29.55S
STAPLES        CLOUDY    48  46  93 N5        29.52S
LONG PRAIRIE   CLOUDY    50  43  76 NE6       29.51F
LITTLE FALLS   LGT RAIN  50  45  81 E6        29.53F
LITCHFIELD     LGT RAIN  59  46  63 SE5       29.51F
BUFFALO        DRIZZLE   56  45  67 E7        29.53F
MAPLE LAKE     LGT RAIN  58  47  65 CALM      29.53F
HUTCHINSON     LGT RAIN  57  48  71 E5        29.52F
$$
MNZ037-044-045-052-053-250600-
   East Central Minnesota

CITY           SKY/WX    TMP DP  RH WIND       PRES   REMARKS
PRINCETON      CLOUDY    61  43  51 S6        29.55F
MORA           CLOUDY    45  36  70 CALM      29.60R
CAMBRIDGE      RAIN      61  45  55 S6        29.55S
RUSH CITY      CLOUDY    57  37  46 NW3       29.57S
MOOSE LAKE     DRIZZLE   36  32  87 NE7       29.60R
HINCKLEY       CLOUDY    43  36  75 N5        29.59R
CLOQUET        CLOUDY    37  32  81 E8        29.62S
MCGREGOR       CLOUDY    37  34  87 E9        29.60F
$$
MNZ071>073-080-081-089-090-097-098-250600-
   Southwest Minnesota

CITY           SKY/WX    TMP DP  RH WIND       PRES   REMARKS
MONTEVIDEO     CLOUDY    46  41  81 N17       29.55S
GRANITE FALLS  CLOUDY    48  44  87 NW20      29.56S
CANBY          CLOUDY    43  39  86 NW13G18   29.59R
MARSHALL       CLOUDY    45  40  82 NW20G28   29.55R
REDWOOD FALLS  CLOUDY    56  47  71 NW13      29.51R
OLIVIA         CLOUDY    54  48  82 NW12G18   29.52R
PIPESTONE      CLOUDY    46  39  76 NW12      29.55R
WINDOM         CLOUDY    57  46  67 SW5       29.51S
WORTHINGTON    PTCLDY    49  44  83 NW9       29.53S
JACKSON        CLOUDY    61  41  48 S10       29.51F
TRACY          CLOUDY    49  45  87 NW16G23   29.55R
SLAYTON        MOCLDY    52  45  76 NW9       29.53S
$$
MNZ065>067-074>077-082>085-091>093-250600-
   South Central Minnesota

CITY           SKY/WX    TMP DP  RH WIND       PRES   REMARKS
MANKATO        CLOUDY    60  37  42 SE12      29.52F
NEW ULM        CLOUDY    55  46  71 SE5       29.50S
ST JAMES       CLOUDY    57  45  62 SE7       29.51F
FAIRMONT       CLOUDY    61  36  39 S13       29.51F
GLENCOE        CLOUDY    57  51  80 E5        29.51S
FARIBAULT      CLOUDY    63  32  31 SE9       29.55F
OWATONNA       CLOUDY    63  28  27 SE14      29.55F
WASECA         CLOUDY    59  34  38 SE13      29.55F
ALBERT LEA     CLOUDY    59  30  33 S13       29.55F
$$
MNZ078>079-086>088-094>096-250600-
   Southeast Minnesota

CITY           SKY/WX    TMP DP  RH WIND       PRES   REMARKS
ROCHESTER      MOCLDY    58  34  40 S13       29.60F
RED WING       CLOUDY    64  27  24 SE9       29.57S
STANTON        CLOUDY    63  32  31 SE5       29.55F
DODGE CENTER   MOCLDY    59  32  36 S14       29.57F
WINONA         CLOUDY    61  32  33 SE6       29.61F
AUSTIN         CLOUDY    57  30  35 S8        29.57F
PRESTON        MOCLDY    59  31  34 S14       29.61F
$$
ABBREVIATIONS USED IN REMARKS
   TC - TEMPERATURES IN CELSIUS
  WCI - WIND CHILL INDEX
   HX - HEAT INDEX
  VSB - VISIBILITY
$$




USA.gov is the U.S. government's official web portal to all federal, state and local government web resources and services.